| time (UTC) | temp C | wind direction | speed KPH | gust KPH | rain 1hr cm | rain 24hr cm | rain mn cm | humidity % | barometer mb |
| 20260504221556 | 26 | 139 | 0.0 | 4.8 | 0.00 | 0.00 | 0.00 | 35 | 1015.6 |
| 20260504220112 | 27 | 51 | 0.0 | 3.2 | 0.00 | 0.00 | 0.00 | 37 | 1015.6 |
| 20260504214558 | 26 | 21 | 0.0 | 4.8 | 0.00 | 0.00 | 0.00 | 37 | 1015.5 |
| 20260504213100 | 26 | 0 | 0.0 | 3.2 | 0.00 | 0.00 | 0.00 | 39 | 1015.5 |
| 20260504211557 | 25 | 0 | 1.6 | 4.8 | 0.00 | 0.00 | 0.00 | 35 | 1015.6 |
| 20260504210058 | 27 | 89 | 0.0 | 8.0 | 0.00 | 0.00 | 0.00 | 33 | 1015.6 |
| 20260504204556 | 26 | 302 | 1.6 | 4.8 | 0.00 | 0.00 | 0.00 | 32 | 1015.8 |
| 20260504203055 | 26 | 226 | 3.2 | 8.0 | 0.00 | 0.00 | 0.00 | 36 | 1015.9 |
| 20260504201554 | 26 | 115 | 1.6 | 6.4 | 0.00 | 0.00 | 0.00 | 36 | 1016.1 |
| 20260504200056 | 27 | 354 | 1.6 | 8.0 | 0.00 | 0.00 | 0.00 | 35 | 1016.0 |
| 20260504194552 | 26 | 0 | 0.0 | 6.4 | 0.00 | 0.00 | 0.00 | 38 | 1016.3 |
| 20260504193055 | 25 | 160 | 1.6 | 6.4 | 0.00 | 0.00 | 0.00 | 36 | 1016.5 |
| 20260504191557 | 25 | 299 | 3.2 | 8.0 | 0.00 | 0.00 | 0.00 | 40 | 1016.9 |
| 20260504190108 | 25 | 104 | 1.6 | 9.7 | 0.00 | 0.00 | 0.00 | 36 | 1017.1 |
| 20260504184611 | 25 | 101 | 1.6 | 11.3 | 0.00 | 0.00 | 0.00 | 41 | 1017.3 |
| 20260504183059 | 25 | 342 | 1.6 | 6.4 | 0.00 | 0.00 | 0.00 | 36 | 1017.4 |
| 20260504181556 | 24 | 0 | 1.6 | 9.7 | 0.00 | 0.00 | 0.00 | 42 | 1017.5 |
| 20260504180053 | 25 | 53 | 1.6 | 6.4 | 0.00 | 0.00 | 0.00 | 38 | 1017.7 |
| 20260504174552 | 24 | 307 | 0.0 | 8.0 | 0.00 | 0.00 | 0.00 | 38 | 1017.8 |
| 20260504173103 | 24 | 0 | 0.0 | 4.8 | 0.00 | 0.00 | 0.00 | 35 | 1018.0 |
| 20260504171556 | 23 | 118 | 3.2 | 6.4 | 0.00 | 0.00 | 0.00 | 38 | 1018.1 |
| 20260504081603 | 5 | 0 | 0.0 | 0.0 | 0.00 | 0.00 | 0.00 | 92 | 1018.9 |
| 20260504044559 | 7 | 0 | 0.0 | 0.0 | 0.00 | 0.00 | 0.00 | 88 | 1019.9 |
| 20260504043058 | 8 | 0 | 0.0 | 0.0 | 0.00 | 0.00 | 0.00 | 88 | 1019.9 |
| 20260504041555 | 8 | 0 | 0.0 | 0.0 | 0.00 | 0.00 | 0.00 | 87 | 1019.8 |
| 20260504040105 | 8 | 0 | 0.0 | 0.0 | 0.00 | 0.00 | 0.00 | 87 | 1019.8 |
| 20260504034600 | 8 | 0 | 0.0 | 0.0 | 0.00 | 0.00 | 0.00 | 84 | 1019.8 |
| 20260504033126 | 9 | 0 | 0.0 | 0.0 | 0.00 | 0.00 | 0.00 | 84 | 1020.1 |
| 20260504031557 | 10 | 0 | 0.0 | 0.0 | 0.00 | 0.00 | 0.00 | 83 | 1020.1 |
| 20260504030056 | 10 | 0 | 0.0 | 0.0 | 0.00 | 0.00 | 0.00 | 83 | 1019.7 |
| 20260504024556 | 10 | 0 | 0.0 | 0.0 | 0.00 | 0.00 | 0.00 | 83 | 1019.7 |
| 20260504023102 | 10 | 0 | 0.0 | 0.0 | 0.00 | 0.00 | 0.00 | 80 | 1019.6 |
| 20260504021556 | 11 | 0 | 0.0 | 0.0 | 0.00 | 0.00 | 0.00 | 77 | 1019.4 |
| 20260504020100 | 11 | 0 | 0.0 | 0.0 | 0.00 | 0.00 | 0.00 | 77 | 1019.2 |
| 20260504014555 | 12 | 0 | 0.0 | 0.0 | 0.00 | 0.00 | 0.00 | 75 | 1019.1 |
| 20260504013109 | 12 | 0 | 0.0 | 0.0 | 0.00 | 0.00 | 0.00 | 71 | 1019.0 |
| 20260504011556 | 12 | 0 | 0.0 | 0.0 | 0.00 | 0.00 | 0.00 | 68 | 1018.7 |
| 20260504010113 | 13 | 0 | 0.0 | 0.0 | 0.00 | 0.00 | 0.00 | 65 | 1018.6 |
| 20260504004610 | 14 | 0 | 0.0 | 0.0 | 0.00 | 0.00 | 0.00 | 62 | 1018.3 |
| 20260504003054 | 15 | 0 | 0.0 | 0.0 | 0.00 | 0.00 | 0.00 | 59 | 1018.2 |
| 20260504001604 | 16 | 0 | 0.0 | 0.0 | 0.00 | 0.00 | 0.00 | 57 | 1018.2 |
| 20260504000056 | 17 | 0 | 0.0 | 0.0 | 0.00 | 0.00 | 0.00 | 53 | 1018.2 |
| 20260503234556 | 18 | 0 | 0.0 | 1.6 | 0.00 | 0.00 | 0.00 | 48 | 1018.2 |
| 20260503233054 | 18 | 0 | 0.0 | 1.6 | 0.00 | 0.00 | 0.00 | 49 | 1018.1 |
| 20260503231555 | 19 | 0 | 0.0 | 1.6 | 0.00 | 0.00 | 0.00 | 44 | 1018.2 |
| 20260503224554 | 21 | 0 | 0.0 | 1.6 | 0.00 | 0.00 | 0.00 | 39 | 1018.2 |
| 20260503223059 | 21 | 335 | 0.0 | 3.2 | 0.00 | 0.00 | 0.00 | 36 | 1018.2 |